GLOBALSTAR M047 [+]

Last updated on Tue May 03 2016 23:39:15 GMT+0000 (Coordinated Universal Time)

1 25772U 99031C 16124.84569792 -.00000044 00000-0 70801-3 0 9997 2 25772 51.9799 138.8087 0016487 301.8414 58.0787 11.31885402768646
UTC large
Height (km)
Speed (km/s)
/
Latitude / Longitude
Inclination (degrees)
Orbital Period (minutes)
Azimuth
Elevation
Range (km)
Doppler Factor

Next 0 passes for location: London (51.5072 / 0.1276)

Sorry there are no passes over London.